Zuerich-Taenikon, Switzerland

6:10 AM CET on December 04, 2016 (GMT +0100)
Zurich Airport

Weather History for LSZH - March, 2013

Change the Weather History Date:

Friday, March 8, 2013

  Actual Average Record
Temperature  
Mean Temperature 43 °F -  
Max Temperature 55 °F 47 °F 59 °F (2014)
Min Temperature 31 °F 30 °F 17 °F (2006)
Degree Days  
Heating Degree Days 22    
Moisture  
Dew Point 38 °F    
Average Humidity 77    
Maximum Humidity 93    
Minimum Humidity 37    
Precipitation  
Precipitation 0.01 in - - ()
Sea Level Pressure  
Sea Level Pressure 29.56 in    
Wind  
Wind Speed 4 mph ()    
Max Wind Speed 14 mph    
Max Gust Speed -    
Visibility 4.9 miles    
Events Fog , Rain    
Averages and records for this station are not official NWS values.
T = Trace of Precipitation, MM = Missing Value Source: Averaged Metar Reports

Daily Weather History Graph

Daily Weather History Graph

Search for Another Location

Airport or City:

Trip Planner

Search our weather history database for the weather conditions in past years. The results will help you decide how hot, cold, wet, or windy it might be!

Date:

Astronomy

Mar. 08, 2013 Rise Set
Actual Time 6:52 AM CET 6:21 PM CET
Civil Twilight 6:22 AM CET 6:51 PM CET
Nautical Twilight 5:46 AM CET 7:27 PM CET
Astronomical Twilight 5:10 AM CET 8:03 PM CET
Moon 4:38 AM CET (3/8) 2:46 PM CET (3/8)
Length of Visible Light 12h 29m
Length of Day
11h 28m
Waning Crescent, 14% of the Moon is Illuminated
Mar 8
Waning Crescent
Mar 11
New
Mar 19
First Quarter
Mar 27
Full
Apr 3
Last Quarter

Hourly Weather History & Observations

Time (CET) Temp. Windchill Dew Point Humidity Pressure Visibility Wind Dir Wind Speed Gust Speed Precip Events Conditions
12:00 AM 41 °F - 35 °F 72% 29.60 in - East 2.3 mph - -  
12:20 AM 39.2 °F - 33.8 °F 81% 29.56 in - WNW 2.3 mph - N/A   Clear
12:50 AM 39.2 °F 37.0 °F 33.8 °F 81% 29.56 in - NNE 3.5 mph - N/A   Clear
1:00 AM 37 °F - 33 °F 82% 29.60 in 6 mi NE 3.5 mph - -   Mist
1:50 AM 35.6 °F - 32.0 °F 87% 29.53 in 5.0 mi Variable 1.2 mph - N/A   Unknown
2:00 AM 34 °F - 31 °F 85% 29.62 in - West 4.6 mph - -  
2:20 AM 35.6 °F 32.8 °F 33.8 °F 93% 29.56 in 5.0 mi NNE 3.5 mph - N/A   Unknown
2:50 AM 33.8 °F - 30.2 °F 87% 29.56 in 4.3 mi Variable 2.3 mph - N/A   Unknown
3:00 AM 35 °F - 33 °F 87% 29.60 in - NE 2.3 mph - -  
3:20 AM 33.8 °F - 32.0 °F 93% 29.53 in 3.7 mi Variable 2.3 mph - N/A   Unknown
3:50 AM 33.8 °F - 32.0 °F 93% 29.53 in 4.3 mi Variable 1.2 mph - N/A   Unknown
4:20 AM 33.8 °F - 32.0 °F 93% 29.50 in 3.7 mi Variable 1.2 mph - N/A   Unknown
4:50 AM 32.0 °F 28.7 °F 28.4 °F 87% 29.50 in 3.7 mi NNW 3.5 mph - N/A   Unknown
5:00 AM 34 °F - 31 °F 84% 29.58 in - NW 4.6 mph - -  
5:20 AM 32.0 °F 28.7 °F 30.2 °F 93% 29.50 in 3.7 mi WNW 3.5 mph - N/A   Unknown
5:50 AM 33.8 °F - 32.0 °F 93% 29.50 in 3.1 mi WNW 2.3 mph - N/A Fog Fog
6:00 AM 33 °F - 31 °F 87% 29.58 in - NW 3.5 mph - -  
6:20 AM 32.0 °F - 30.2 °F 93% 29.50 in 2.8 mi West 2.3 mph - N/A   Mist
6:50 AM 32.0 °F 27.5 °F 30.2 °F 93% 29.50 in 3.7 mi East 4.6 mph - N/A   Unknown
7:00 AM 30 °F - 28 °F 91% 29.58 in 4 mi ENE 2.3 mph - -   Mist
7:20 AM 32.0 °F - 30.2 °F 93% 29.50 in 3.1 mi Variable 2.3 mph - N/A   Mist
7:50 AM 33.8 °F - 32.0 °F 93% 29.50 in 3.1 mi Variable 2.3 mph - N/A   Mist
8:00 AM 36 °F - 33 °F 82% 29.56 in - West 2.3 mph - -  
8:20 AM 35.6 °F - 33.8 °F 93% 29.50 in 3.1 mi Variable 2.3 mph - N/A   Mist
8:50 AM 41.0 °F - 35.6 °F 81% 29.50 in 4.3 mi Variable 1.2 mph - N/A   Mostly Cloudy
9:00 AM 40 °F - 36 °F 82% 29.55 in - WNW 2.3 mph - -  
9:20 AM 41.0 °F 39.0 °F 37.4 °F 87% 29.50 in - West 3.5 mph - N/A   Clear
9:50 AM 48.2 °F - 39.2 °F 71% 29.50 in - NW 4.6 mph - N/A   Clear
10:20 AM 51.8 °F - 37.4 °F 58% 29.47 in - NNW 4.6 mph - N/A   Clear
10:50 AM 53.6 °F - 37.4 °F 54% 29.50 in - NW 5.8 mph - N/A   Clear
11:00 AM 52 °F - 39 °F 50% 29.51 in - NW 5.8 mph - -  
11:20 AM 53.6 °F - 37.4 °F 54% 29.50 in - WNW 5.8 mph - N/A   Clear
11:50 AM 53.6 °F - 37.4 °F 54% 29.50 in - West 5.8 mph - N/A   Clear
12:00 PM 53 °F - 38 °F 45% 29.52 in - NW 3.5 mph - -  
12:20 PM 55.4 °F - 37.4 °F 51% 29.50 in - West 4.6 mph - N/A   Clear
12:50 PM 55.4 °F - 37.4 °F 51% 29.53 in - SW 11.5 mph - N/A   Clear
1:00 PM 54 °F - 35 °F 37% 29.52 in 11 mi West 11.5 mph - -   Mostly Cloudy
1:20 PM 53.6 °F - 37.4 °F 54% 29.53 in - WSW 9.2 mph - N/A   Clear
1:50 PM 53.6 °F - 37.4 °F 54% 29.50 in - SW 9.2 mph - N/A   Clear
2:00 PM 54 °F - 36 °F 40% 29.52 in - WSW 9.2 mph - -  
2:20 PM 55.4 °F - 39.2 °F 54% 29.50 in - SSW 8.1 mph - N/A   Clear
2:50 PM 55.4 °F - 39.2 °F 54% 29.53 in - SW 9.2 mph - N/A   Clear
3:00 PM 55 °F - 40 °F 45% 29.52 in - SW 9.2 mph - -  
3:20 PM 55.4 °F - 41.0 °F 58% 29.53 in - SSW 9.2 mph - N/A   Clear
3:50 PM 55.4 °F - 41.0 °F 58% 29.53 in - SSW 10.4 mph - N/A   Clear
4:20 PM 53.6 °F - 41.0 °F 62% 29.56 in - SW 13.8 mph - N/A   Clear
4:50 PM 53.6 °F - 41.0 °F 62% 29.56 in - SW 9.2 mph - N/A   Clear
5:00 PM 53 °F - 41 °F 53% 29.57 in - WSW 9.2 mph - -  
5:20 PM 53.6 °F - 41.0 °F 62% 29.56 in 6.2 mi WSW 8.1 mph - N/A   Mostly Cloudy
5:50 PM 50.0 °F - 42.8 °F 76% 29.59 in 6.2 mi SW 13.8 mph - N/A Rain Light Rain
6:00 PM 49 °F - 44 °F 76% 29.61 in - WSW 10.4 mph - -  
6:20 PM 50.0 °F - 44.6 °F 82% 29.59 in 6.2 mi SW 6.9 mph - N/A Rain Light Rain
6:50 PM 48.2 °F - 44.6 °F 87% 29.62 in 6.2 mi SSW 4.6 mph - N/A Rain Light Rain
7:00 PM 48 °F - 45 °F 85% 29.64 in 9 mi SW 9.2 mph - - Rain Light Rain
7:20 PM 48.2 °F - 44.6 °F 87% 29.62 in 6.2 mi South 6.9 mph - N/A Rain Light Rain
7:50 PM 48.2 °F - 44.6 °F 87% 29.62 in 5.0 mi South 3.5 mph - N/A Rain Light Rain
8:00 PM 48 °F - 45 °F 87% 29.66 in - South 3.5 mph - -  
8:20 PM 46.4 °F 44.3 °F 44.6 °F 93% 29.65 in 6.2 mi SSE 4.6 mph - N/A Rain Light Rain
8:50 PM 46.4 °F - 44.6 °F 93% 29.65 in 5.0 mi Variable 1.2 mph - N/A Rain Light Rain
9:00 PM 48 °F - 45 °F 87% 29.67 in - SSW 3.5 mph - -  
9:20 PM 46.4 °F 43.5 °F 44.6 °F 93% 29.65 in 5.0 mi South 5.8 mph - N/A Rain Light Rain
9:50 PM 46.4 °F 43.5 °F 44.6 °F 93% 29.65 in 4.3 mi South 5.8 mph - N/A Rain Light Rain
10:20 PM 46.4 °F 44.3 °F 44.6 °F 93% 29.65 in 4.3 mi SSE 4.6 mph - N/A Rain Light Rain
10:50 PM 46.4 °F 44.3 °F 44.6 °F 93% 29.65 in 3.7 mi SSE 4.6 mph - N/A Rain Rain
11:00 PM 48 °F - 45 °F 86% 29.68 in - South 3.5 mph - -  
11:20 PM 46.4 °F 42.9 °F 44.6 °F 93% 29.65 in 5.0 mi South 6.9 mph - N/A Rain Light Rain
11:50 PM 46.4 °F 43.5 °F 44.6 °F 93% 29.65 in 6.2 mi South 5.8 mph - N/A   Mostly Cloudy